Home   Weather   Nagasaki   Past weeks

Flag for Japan Past Weather in Nagasaki, Japan — Yesterday and Last 2 Weeks

Now
51 °F

Cool.


Feels Like: 51 °F
Forecast: 53 / 68 °F
Wind: 2 mph from Southeast

Location: Nagasaki

Current Time: Apr 28, 2017 at 2:06:19 am

Latest Report: Apr 28, 2017 at 1:00 am


Visibility: N/A

Pressure: 29.90 "Hg

Humidity: 76%

Dew Point: 44 °F

Location of NagasakiLocation

Past Weather in Nagasaki — Graph

°F

Nagasaki Temperature Yesterday

Maximum temperature yesterday: 67 °F (at 1:00 pm)
Minimum temperature yesterday: 55 °F (at 11:00 pm)
Average temperature yesterday: 61 °F

High & Low Weather Summary for the Past Weeks

 TemperatureHumidityPressure
High78 °F (Apr 16, 3:00 pm)100% (Apr 17, 7:00 am)30.17 "Hg (Apr 17, 7:00 am)
Low48 °F (Apr 13, 6:00 am)19% (Apr 14, 12:00 pm)29.47 "Hg (Apr 17, 4:00 pm)
Average63 °F71%29.93 "Hg
* Reported Apr 13 12:00 am — Apr 28 12:00 am, Nagasaki, Weather by CustomWeather, © 2017

Note: Actual official high and low records may vary slightly from our data, if they occured in-between our weather recording intervals... More about our weather records

Advertising

Nagasaki Weather History for the Previous 24 Hours

Scroll right to see more
 ConditionsComfort  
Time TempWeatherWind HumidityBarometerVisibility
12:00 am
Fri, Apr 28
53 °FCool.1 mph71%29.91 "HgN/A
11:00 pm
Thu, Apr 27
55 °FCool.1 mph64%29.91 "HgN/A
10:00 pm57 °FRefreshingly cool.3 mph56%29.91 "HgN/A
9:00 pm57 °FOvercast.3 mph59%29.90 "Hg12 mi
8:00 pm58 °FRefreshingly cool.5 mph55%29.87 "HgN/A
7:00 pm59 °FRefreshingly cool.7 mph56%29.85 "HgN/A
6:00 pm60 °FOvercast.10 mph59%29.84 "Hg12 mi
5:00 pm63 °FMild.12 mph54%29.83 "HgN/A
4:00 pm65 °FMild.15 mph42%29.82 "HgN/A
3:00 pm67 °FOvercast.14 mph51%29.82 "Hg16 mi
2:00 pm66 °FMild.12 mph52%29.83 "HgN/A
1:00 pm67 °FMild.12 mph61%29.84 "HgN/A
12:00 pm66 °FOvercast.7 mph63%29.85 "Hg12 mi
11:00 am65 °FMild.3 mph53%29.86 "HgN/A
10:00 am63 °FMild.5 mph70%29.85 "HgN/A
9:00 am61 °FOvercast.6 mph77%29.86 "Hg9 mi
8:00 am60 °FCool.8 mph82%29.87 "HgN/A
7:00 am59 °FCool.7 mph89%29.86 "HgN/A
6:00 am58 °FOvercast.5 mph91%29.83 "Hg9 mi
5:00 am58 °FCool.2 mph94%29.83 "HgN/A
4:00 am58 °FCool.2 mph93%29.83 "HgN/A
3:00 am58 °FPassing clouds.5 mph91%29.83 "Hg9 mi
2:00 am59 °FCool.2 mph91%29.85 "HgN/A
Weather by CustomWeather, © 2017

See weather overviewHow to use our weather pages